默认 日期 大小 文件数 浏览量 最新下载 xml
jungle磁力链接相关资源由用户搜索指令自动获取,结果来源于网络,本站不存储任何资料,亦不承担任何责任,请于24小时内删除,搜索到10509个磁力,显示前4000条数据,用时5ms。
    {"HR PODNAPISI": {"George of the Jungle 2003 SLOSubs DVDRip XviD-Shredder SW.srt": 80919}, "George of the Jungle 2003 SLOSubs DVDRip XviD-Shredder SW.avi": 732389376, "George of the Jungle 2003 SLOSubs DVDRip XviD-Shredder SW.txt": 74270}
创建时间: 2018-11-24 21:00:59 大小:698.61 MB 文件数量:3 热度:7 最近下载:2025-08-02 15:25:03
    {"INFO DOWNLOAD.txt": 253, "The Jungle Book 2 (2003) 1080p-H264-AC 3 (DTS 5.1) Remastered & nickarad.mp4": 1462122328, "vlc-record-2018-09-16-16h47m24s-The Jungle Book 2 (2003) 1080p-H264-AC 3 (DTS 5.1) Remastered & nickarad-.ts": 9574652}
创建时间: 2018-11-24 21:01:21 大小:1.37 GB 文件数量:3 热度:10 最近下载:2025-09-20 09:15:02
    {"Subtitles": {"English-Forced.srt": 1381}, "sample.avi": 9582592, "Jungle.2017.BRRip.XviD.AC3-EVO.avi": 1469475372, "Jungle.2017.BRRip.XviD.AC3-EVO.nfo": 657}
创建时间: 2018-11-24 21:17:56 大小:1.38 GB 文件数量:4 热度:7 最近下载:2023-04-19 06:00:09
    {"ReadMe.txt": 397, "Mac OSX ReadThis.txt": 178, "The Jungle Book 2016 720p BrRip x264 - DIMENSION.wmv": 757637866}
创建时间: 2018-11-24 21:28:13 大小:722.54 MB 文件数量:3 热度:6 最近下载:2023-04-19 06:00:08
    {"04-aioaska-energy_boost_(original_mix)-wws.mp3": 26527955, "08-aioaska-indian_flute_(original_mix)-wws.mp3": 18608851, "07-aioaska-the_final_arrival_(original_mix)-wws.mp3": 19524312, "02-aioaska-power_of_ayahuasca_(original_mix)-wws.mp3": 22083289, "05- ...
创建时间: 2018-11-24 21:49:42 大小:169.66 MB 文件数量:10 热度:8 最近下载:2025-09-17 11:24:20
    ... jpg": 283045, "Jungle Fantasy - Ivory 001_01.jpg": 275827, "Jungle Fantasy - Ivory 001_02 ... .jpg": 339709, "Jungle Fantasy - Ivory ... 001_03.jpg": 145277, "Jungle Fantasy - Ivory ...
创建时间: 2018-11-24 22:08:51 大小:29.8 MB 文件数量:49 热度:7 最近下载:2023-12-26 00:15:03
    {"Terminus-Solaris_EP-WEB-2014-UKW": {"00-terminus-solaris_ep-web-2014.m3u": 103, "00-terminus-solaris_ep-web-2014.nfo": 909, "00-terminus-solaris_ep-web-2014-cover.jpg": 120491, "02-terminus-dissimulate_(original_mix).mp3": 17895185, "01-terminus- ...
创建时间: 2018-11-25 01:08:36 大小:362.48 MB 文件数量:50 热度:6 最近下载:2023-04-19 07:10:07
    {"EXCLUS Torrent.html": 489, "Torrent9 - 2018.html": 507, "Bluray 720p - 1080p.html": 495, "Jumanji.Welcome.To.The.Jungle.2017.FRENCH.HDRip.XviD-FuN.avi": 1470599184}
创建时间: 2018-11-25 01:59:38 大小:1.37 GB 文件数量:4 热度:6 最近下载:2023-04-19 07:20:03
    ... 林.Jumanji.Welcome.to.the.Jungle.2017.HD720P.X264.AAC.English ... 林.Jumanji.Welcome.to.the.Jungle.2017.HD1080P.X264.AAC.English ...
创建时间: 2018-11-25 02:07:52 大小:6.7 GB 文件数量:7 热度:68 最近下载:2025-08-06 12:14:05
    {"[EMTP-Raws]新ジャングル大帝 進めレオ!(1966) 第01話 「白い王者」[DVDrip][x264_AC3][Hi10P].mkv": 366976308, "[EMTP-Raws]新ジャングル大帝 進めレオ!(1966) 第07話 「黄金の弓」[DVDrip][x264_AC3][Hi10P].mkv": 307407542, "[EMTP-Raws]新ジャングル大帝 進めレオ!(1966) 第09話 「恐怖の鳥」[DVDrip][x264_AC3][Hi10P].mkv": ...
创建时间: 2018-11-25 02:27:22 大小:8.72 GB 文件数量:26 热度:10 最近下载:2025-08-04 16:26:05
    {"Jumanji Welcome to the Jungle 2017 720p BluRay x264 AAC.mkv": 989241978}
创建时间: 2018-11-25 03:44:08 大小:943.41 MB 文件数量:1 热度:6 最近下载:2023-04-19 07:40:04
    {"1.jpg": 43630, "2.jpg": 27834, "3.jpg": 54912, "4.jpg": 33803, "5.jpg": 61413, "6.jpg": 32583, "dvd.jpg": 51609, "Cartea_junglei_1(torrentbits.ro).avi": 734791680}
创建时间: 2018-11-25 04:36:30 大小:701.04 MB 文件数量:8 热度:6 最近下载:2023-04-19 08:00:06
    {"Mozart.in.the.Jungle.04e01.WEB-DLRip.720p.Rus.Eng.AlexFilm.mkv": 729289135, "Mozart.in.the.Jungle.04e02.WEB-DLRip.720p.Rus.Eng.AlexFilm.mkv": 892266652}
创建时间: 2018-11-25 09:27:19 大小:1.51 GB 文件数量:2 热度:5 最近下载:2023-04-19 08:50:02
    {"C.wmv": 1324953159, "1632833bh.jpg": 132675, "dvd_3010606D1.jpg": 31794, "C.wmv_thumbs_[2016.09.20_09.52.43].jpg": 1115603}
创建时间: 2018-11-25 09:45:56 大小:1.24 GB 文件数量:4 热度:14 最近下载:2025-01-28 01:51:02
    ... You).flac": 26921765, "See Jungle! See Jungle! Go Join Your Gang Yeah ... Crazy!.cue": 2409, "See Jungle! See Jungle! Go Join Your Gang ... "Bow Wow Wow - See Jungle! See Jungle! Go Join Your Gang Yeah ... "Bow Wow Wow - See Jungle! See Jungle! Go Join Your Gang Yeah ...
创建时间: 2018-11-25 10:21:29 大小:283.17 MB 文件数量:20 热度:22 最近下载:2025-10-05 00:48:03
    {"sample.avi": 17002496, "The.Jungle.Book.2016.BRRip.XviD.AC3-EVO.avi": 1494128940, "The.Jungle.Book.2016.BRRip.XviD.AC3-EVO.nfo": 779, "Torrent Downloaded From ExtraTorrent.cc.txt": 338}
创建时间: 2018-11-25 10:42:20 大小:1.41 GB 文件数量:4 热度:9 最近下载:2023-04-19 09:20:06
    {"Cover.jpg": 59848, "Collage.jpg": 146401, "ReadMe!!!.txt": 365, "Jumanji Welcome to the Jungle 2017 EXTENDED 1080p BluRay x264-DTS-English.avi": 788206744}
创建时间: 2018-11-25 10:45:28 大小:751.89 MB 文件数量:4 热度:6 最近下载:2023-04-19 09:20:06
    {"02. Funky Drummer.flac": 50303126, "01. It's A New Day.flac": 37370240, "08. Soul Power (Re-Edit) (Mono).flac": 41434493, "05. Funky Drummer (Bonus Beat Reprise).flac": 16053376, "03. Give It Up Or Turnit A Loose (Remix).flac": 37268089, "04. I Got To ...
创建时间: 2018-11-25 11:01:01 大小:341.49 MB 文件数量:9 热度:7 最近下载:2023-04-19 09:20:03
    {"DescargasNsN.url": 184, "HJFD6HD0FH545FD.part1.rar": 1048576000, "HJFD6HD0FH545FD.part2.rar": 1048576000, "HJFD6HD0FH545FD.part3.rar": 1048576000, "HJFD6HD0FH545FD.part4.rar": 958997200, "Informacion del archivo.txt": 12060}
创建时间: 2018-11-25 11:14:32 大小:3.82 GB 文件数量:6 热度:7 最近下载:2023-04-19 09:20:08
    {"213-jo-rtype.mp3": 5896926, "113-remarc-rip.mp3": 7425172, "107-dj_hype-cops.mp3": 5349203, "205-krust-angles.mp3": 6649065, "110-capone-friday.mp3": 6451066, "215-capone-massive.mp3": 8196051, "306-andy_c-roll_on.mp3": 6706083, "203-andy_c-cool_down.mp3 ...
创建时间: 2018-11-25 13:46:06 大小:360.5 MB 文件数量:73 热度:8 最近下载:2023-04-19 10:00:10